This is the latest recevied weather packets stored in our database for station/object JF2ZGN-13. If no packets are shown the sender has not sent any weather packets the latest 1 day(s).
| Time | Temp. | Humidity | Pressure | Rain* | Wind** | Luminosity | Snow |
|---|---|---|---|---|---|---|---|
| 1778020052 | 9.44° C | 82% | 913.2 hPa | 0 mm | 3.58 m/s, 181° | - | - |
| 1778019451 | 9.44° C | 82% | 913.5 hPa | 0 mm | 4.02 m/s, 197° | - | - |
| 1778018851 | 9.44° C | 84% | 913.4 hPa | 0 mm | 4.02 m/s, 208° | - | - |
| 1778018250 | 9.44° C | 86% | 913.5 hPa | 0 mm | 4.47 m/s, 208° | - | - |
| 1778017651 | 9.44° C | 88% | 913.4 hPa | 0 mm | 4.47 m/s, 190° | - | - |
| 1778017049 | 9.44° C | 91% | 913.4 hPa | 0 mm | 4.47 m/s, 212° | - | - |
| 1778016449 | 9.44° C | 93% | 913.5 hPa | 0 mm | 3.13 m/s, 201° | - | - |
| 1778015849 | 9.44° C | 94% | 913.8 hPa | 0 mm | 2.24 m/s, 186° | - | - |
| 1778015248 | 9.44° C | 95% | 913.6 hPa | 0 mm | 2.24 m/s, 207° | - | - |
| 1778014647 | 9.44° C | 95% | 913.5 hPa | 0 mm | 2.68 m/s, 198° | - | - |
| 1778014047 | 8.89° C | 96% | 913.6 hPa | 0 mm | 2.24 m/s, 184° | - | - |
| 1778013447 | 8.89° C | 96% | 913.4 hPa | 0 mm | 2.24 m/s, 235° | - | - |
| 1778012847 | 8.89° C | 96% | 913.5 hPa | 0 mm | 2.24 m/s, 214° | - | - |
| 1778012246 | 8.89° C | 96% | 913.5 hPa | 0 mm | 3.13 m/s, 179° | - | - |
| 1778011645 | 8.89° C | 95% | 913.6 hPa | 0 mm | 2.68 m/s, 195° | - | - |
| 1778011045 | 8.89° C | 95% | 913.4 hPa | 0 mm | 3.58 m/s, 172° | - | - |
| 1778010444 | 8.89° C | 95% | 913.2 hPa | 0 mm | 3.58 m/s, 201° | - | - |
| 1778009844 | 8.89° C | 95% | 913.3 hPa | 0 mm | 3.58 m/s, 210° | - | - |
| 1778009243 | 8.89° C | 94% | 913.4 hPa | 0 mm | 4.02 m/s, 208° | - | - |
| 1778008643 | 8.89° C | 93% | 913.5 hPa | 0 mm | 3.13 m/s, 193° | - | - |
| 1778008042 | 8.33° C | 93% | 913.5 hPa | 0 mm | 3.58 m/s, 205° | - | - |
| 1778007442 | 8.33° C | 93% | 913.4 hPa | 0 mm | 3.13 m/s, 228° | - | - |
| 1778006842 | 8.89° C | 92% | 913.2 hPa | 0 mm | 3.13 m/s, 224° | - | - |
| 1778006241 | 8.33° C | 91% | 913.2 hPa | 0 mm | 3.13 m/s, 195° | - | - |
| 1778005641 | 8.33° C | 89% | 913.1 hPa | 0 mm | 3.58 m/s, 224° | - | - |
* Rain since midnight (hover to see other rain measurements)
** Current wind speed in m/s (hover to see current wind gust speed)